Location: Eboldshausen
(51.7766°N, 10.0050°E)
Time: 17:03:47
(UTC+00:00)

Meteor 2-3 Rocket - Pass Details

Date: 15 November 2025
Orbit: 841 x 884 km, 81.2° (Epoch: 12 December)

Event Time Altitude Azimuth Distance (km) Brightness Sun altitude
Rises 18:54:14 0° 343° (NNW) 3,475 7.2 -31.4°
Reaches altitude 10° 18:56:45 10° 339° (NNW) 2,526 6.5 -31.8°
Maximum altitude 19:02:16 50° 266° (W) 1,090 4.5 -32.6°
Enters shadow 19:03:04 46° 239° (WSW) 1,139 4.5 -32.8°
